TimeAEST,TemperatureF,Dew PointF,Humidity,Sea Level PressureIn,VisibilityMPH,Wind Direction,Wind SpeedMPH,Gust SpeedMPH,PrecipitationIn,Events,Conditions,WindDirDegrees,DateUTC
12:00 AM,72,66,77,29.99,,SSE,8.1,,,,Overcast,160,2013-07-19 14:00:00
12:00 AM,71.6,66.2,83,29.98,5.6,SSE,8.1,-,N/A,Rain,Light Rain Showers,160,2013-07-19 14:00:00
12:30 AM,71.6,66.2,83,29.98,6.2,South,9.2,-,N/A,,Overcast,180,2013-07-19 14:30:00
1:00 AM,72,65,74,29.99,,South,9.2,,,,,190,2013-07-19 15:00:00
1:00 AM,71.6,66.2,83,29.98,6.2,South,9.2,-,N/A,,Mostly Cloudy,190,2013-07-19 15:00:00
1:30 AM,69.8,66.2,88,29.98,6.2,South,10.4,-,N/A,Rain,Light Rain Showers,190,2013-07-19 15:30:00
2:00 AM,71.6,66.2,83,29.95,6.2,South,10.4,-,N/A,,Scattered Clouds,190,2013-07-19 16:00:00
2:30 AM,69.8,66.2,88,29.95,6.2,SE,9.2,-,N/A,,Partly Cloudy,130,2013-07-19 16:30:00
3:00 AM,70,65,81,29.95,,SSE,5.8,,,,,160,2013-07-19 17:00:00
3:00 AM,69.8,66.2,88,29.95,6.2,SSE,5.8,-,N/A,,Scattered Clouds,160,2013-07-19 17:00:00
3:30 AM,69.8,66.2,88,29.95,6.2,SSE,8.1,-,N/A,,Scattered Clouds,150,2013-07-19 17:30:00
4:00 AM,70,65,78,29.95,,South,5.8,,,,,170,2013-07-19 18:00:00
4:00 AM,69.8,64.4,83,29.95,6.2,South,5.8,-,N/A,,Partly Cloudy,170,2013-07-19 18:00:00
4:30 AM,68.0,66.2,94,29.95,6.2,West,1.2,-,N/A,,Scattered Clouds,270,2013-07-19 18:30:00
5:00 AM,68.0,64.4,88,29.92,-9999.0,SE,6.9,-,N/A,,Clear,140,2013-07-19 19:00:00
5:30 AM,68.0,66.2,94,29.95,-9999.0,SSE,8.1,-,N/A,,Clear,150,2013-07-19 19:30:00
6:00 AM,68,66,90,29.95,19,SSE,5.8,,,,Partly Cloudy,160,2013-07-19 20:00:00
6:00 AM,68.0,66.2,94,29.95,6.2,SSE,5.8,-,N/A,,Partly Cloudy,160,2013-07-19 20:00:00
6:30 AM,68.0,64.4,88,29.95,6.2,SSE,6.9,-,N/A,,Partly Cloudy,150,2013-07-19 20:30:00
7:00 AM,67,65,93,29.97,,SE,11.5,,,,,130,2013-07-19 21:00:00
7:00 AM,68.0,66.2,94,29.95,6.2,SE,11.5,-,N/A,,Partly Cloudy,130,2013-07-19 21:00:00
7:30 AM,68.0,66.2,94,29.95,6.2,SE,9.2,-,N/A,,Partly Cloudy,130,2013-07-19 21:30:00
8:00 AM,69.8,66.2,88,29.98,6.2,SE,9.2,-,N/A,,Partly Cloudy,130,2013-07-19 22:00:00
8:30 AM,71.6,66.2,83,29.98,6.2,SE,9.2,-,N/A,,Partly Cloudy,140,2013-07-19 22:30:00
9:00 AM,74,65,65,29.99,19,South,9.2,,,,Partly Cloudy,170,2013-07-19 23:00:00
9:00 AM,75.2,64.4,69,29.98,6.2,South,9.2,-,N/A,,Partly Cloudy,170,2013-07-19 23:00:00
9:30 AM,75.2,64.4,69,29.98,6.2,South,9.2,-,N/A,,Partly Cloudy,170,2013-07-19 23:30:00
10:00 AM,76,65,60,29.99,,SSE,8.1,,,,,160,2013-07-20 00:00:00
10:00 AM,75.2,64.4,69,29.98,6.2,SSE,8.1,-,N/A,,Partly Cloudy,160,2013-07-20 00:00:00
10:30 AM,77.0,64.4,65,29.98,6.2,SSE,8.1,-,N/A,,Partly Cloudy,160,2013-07-20 00:30:00
11:00 AM,78.8,64.4,61,29.95,6.2,SE,8.1,-,N/A,,Partly Cloudy,130,2013-07-20 01:00:00
11:30 AM,78.8,64.4,61,29.95,6.2,ESE,6.9,-,N/A,,Partly Cloudy,110,2013-07-20 01:30:00
12:00 PM,79,64,51,29.95,25,ENE,6.9,,,,Partly Cloudy,60,2013-07-20 02:00:00
12:00 PM,78.8,64.4,61,29.95,6.2,ENE,6.9,-,N/A,,Partly Cloudy,60,2013-07-20 02:00:00
12:30 PM,78.8,64.4,61,29.92,6.2,NE,10.4,-,N/A,,Partly Cloudy,50,2013-07-20 02:30:00
1:00 PM,79,65,52,29.93,,ENE,9.2,,,,,60,2013-07-20 03:00:00
1:00 PM,78.8,64.4,61,29.92,6.2,ENE,9.2,-,N/A,,Partly Cloudy,60,2013-07-20 03:00:00
1:30 PM,78.8,64.4,61,29.89,6.2,NE,9.2,-,N/A,,Partly Cloudy,50,2013-07-20 03:30:00
2:00 PM,78.8,66.2,65,29.89,6.2,NE,10.4,-,N/A,,Partly Cloudy,50,2013-07-20 04:00:00
2:30 PM,78.8,62.6,57,29.89,6.2,NE,10.4,-,N/A,,Partly Cloudy,50,2013-07-20 04:30:00
3:00 PM,79,64,50,29.89,25,NE,9.2,,,,Partly Cloudy,50,2013-07-20 05:00:00
3:00 PM,78.8,64.4,61,29.89,6.2,NE,9.2,-,N/A,,Partly Cloudy,50,2013-07-20 05:00:00
3:30 PM,78.8,64.4,61,29.86,6.2,NE,8.1,-,N/A,,Partly Cloudy,50,2013-07-20 05:30:00
4:00 PM,77,65,57,29.88,,NE,9.2,,,,,40,2013-07-20 06:00:00
4:00 PM,77.0,64.4,65,29.86,6.2,NE,9.2,-,N/A,,Partly Cloudy,40,2013-07-20 06:00:00
4:30 PM,77.0,66.2,69,29.89,6.2,NE,9.2,-,N/A,,Partly Cloudy,50,2013-07-20 06:30:00
5:00 PM,77.0,62.6,61,29.89,6.2,ENE,9.2,-,N/A,,Scattered Clouds,70,2013-07-20 07:00:00
5:30 PM,75.2,62.6,65,29.89,6.2,East,9.2,-,N/A,,Scattered Clouds,80,2013-07-20 07:30:00
6:00 PM,74,63,61,29.91,,East,9.2,,,,,80,2013-07-20 08:00:00
6:00 PM,75.2,62.6,65,29.89,6.2,East,9.2,-,N/A,,Scattered Clouds,80,2013-07-20 08:00:00
6:30 PM,75.2,62.6,65,29.92,6.2,ESE,10.4,-,N/A,,Scattered Clouds,120,2013-07-20 08:30:00
7:00 PM,73,63,64,29.94,,South,5.8,,,,,170,2013-07-20 09:00:00
7:00 PM,73.4,62.6,69,29.92,6.2,South,5.8,-,N/A,,Mostly Cloudy,170,2013-07-20 09:00:00
7:30 PM,71.6,64.4,78,29.92,6.2,South,5.8,-,N/A,,Scattered Clouds,170,2013-07-20 09:30:00
8:00 PM,71.6,64.4,78,29.95,6.2,South,6.9,-,N/A,,Scattered Clouds,180,2013-07-20 10:00:00
8:30 PM,71.6,64.4,78,29.95,6.2,South,6.9,-,N/A,,Scattered Clouds,180,2013-07-20 10:30:00
9:00 PM,71,64,74,29.96,,South,6.9,,,,,180,2013-07-20 11:00:00
9:00 PM,71.6,64.4,78,29.95,-9999.0,South,6.9,-,N/A,,Clear,170,2013-07-20 11:00:00
9:30 PM,71.6,64.4,78,29.95,-9999.0,South,6.9,-,N/A,,Clear,180,2013-07-20 11:30:00
10:00 PM,71,65,76,29.98,,South,8.1,,,,,180,2013-07-20 12:00:00
10:00 PM,71.6,64.4,78,29.98,-9999.0,South,8.1,-,N/A,,Clear,180,2013-07-20 12:00:00
10:30 PM,69.8,64.4,83,29.95,-9999.0,SSE,6.9,-,N/A,,Clear,160,2013-07-20 12:30:00
11:00 PM,69.8,64.4,83,29.95,-9999.0,South,6.9,-,N/A,,Clear,180,2013-07-20 13:00:00
11:30 PM,69.8,64.4,83,29.95,-9999.0,NNE,1.2,-,N/A,,Clear,30,2013-07-20 13:30:00